Weather History for 16531 - September, 2013

Change the Weather History Date:

Friday, September 6, 2013

  Actual Average Record
Temperature  
Mean Temperature 73 °F -  
Max Temperature 82 °F 78 °F - ()
Min Temperature 64 °F 58 °F - ()
Cooling Degree Days 8    
Growing Degree Days 23 (Base 50)    
Moisture  
Dew Point 65 °F    
Average Humidity 78    
Maximum Humidity 94    
Minimum Humidity 54    
Precipitation  
Precipitation 0.00 in 0.06 in - ()
Sea Level Pressure  
Sea Level Pressure 29.93 in    
Wind  
Wind Speed 5 mph ()    
Max Wind Speed 13 mph    
Max Gust Speed -    
Visibility 6.2 miles    
Events      
T = Trace of Precipitation, MM = Missing Value Source: Averaged Metar Reports

Daily Weather History Graph

Daily Weather History Graph

Search for Another Location

Airport or City:

Trip Planner

Search our weather history database for the weather conditions in past years. The results will help you decide how hot, cold, wet, or windy it might be!

Date:

Astronomy

Sep. 06, 2013 Rise Set
Actual Time 6:53 AM CEST 7:46 PM CEST
Civil Twilight 6:25 AM CEST 8:13 PM CEST
Nautical Twilight 5:52 AM CEST 8:47 PM CEST
Astronomical Twilight 5:18 AM CEST 9:21 PM CEST
Moon 7:49 AM CEST 8:00 PM CEST
Length of Visible Light 13h 48m
Length of Day
12h 52m
New Moon, 1% of the Moon is Illuminated
Sep 6
New Moon
Sep 12
First Quarter
Sep 19
Full
Sep 27
Last Quarter
Oct 5
New

Hourly Weather History & Observations

Time (CEST) Temp. Heat Index Dew Point Humidity Pressure Visibility Wind Dir Wind Speed Gust Speed Precip Events Conditions
12:20 AM 68.0 °F - 64.4 °F 88% 29.95 in - SW 4.6 mph - N/A   Clear
12:50 AM 68.0 °F - 64.4 °F 88% 29.95 in - SSW 5.8 mph - N/A   Clear
1:20 AM 66.2 °F - 64.4 °F 94% 29.95 in - SW 3.5 mph - N/A   Clear
1:50 AM 66.2 °F - 64.4 °F 94% 29.92 in - SSW 3.5 mph - N/A   Clear
2:20 AM 68.0 °F - 64.4 °F 88% 29.92 in - SSW 4.6 mph - N/A   Clear
2:50 AM 68.0 °F - 64.4 °F 88% 29.92 in - SW 3.5 mph - N/A   Clear
3:20 AM 66.2 °F - 62.6 °F 88% 29.92 in - Variable 2.3 mph - N/A   Clear
3:50 AM 66.2 °F - 62.6 °F 88% 29.92 in - SSW 3.5 mph - N/A   Clear
4:20 AM 66.2 °F - 62.6 °F 88% 29.92 in - SSW 3.5 mph - N/A   Clear
4:50 AM 64.4 °F - 62.6 °F 94% 29.92 in - SSW 4.6 mph - N/A   Clear
5:20 AM 64.4 °F - 62.6 °F 94% 29.92 in - SSW 3.5 mph - N/A   Clear
5:50 AM 64.4 °F - 62.6 °F 94% 29.92 in - SW 4.6 mph - N/A   Clear
6:20 AM 64.4 °F - 62.6 °F 94% 29.92 in 6.2 mi SSW 4.6 mph - N/A   Scattered Clouds
6:50 AM 64.4 °F - 62.6 °F 94% 29.92 in 6.2 mi South 3.5 mph - N/A   Scattered Clouds
7:20 AM 64.4 °F - 62.6 °F 94% 29.92 in - SSE 4.6 mph - N/A   Clear
7:50 AM 66.2 °F - 62.6 °F 88% 29.92 in - SSW 4.6 mph - N/A   Clear
8:20 AM 68.0 °F - 64.4 °F 88% 29.92 in - Variable 2.3 mph - N/A   Clear
8:50 AM 69.8 °F - 66.2 °F 88% 29.92 in - Variable 2.3 mph - N/A   Clear
9:20 AM 71.6 °F - 66.2 °F 83% 29.92 in - Variable 1.2 mph - N/A   Clear
9:50 AM 75.2 °F - 66.2 °F 73% 29.95 in - Variable 2.3 mph - N/A   Clear
10:20 AM 77.0 °F - 66.2 °F 69% 29.95 in 6.2 mi NE 5.8 mph - N/A   Partly Cloudy
10:50 AM 77.0 °F - 64.4 °F 65% 29.95 in 6.2 mi NE 6.9 mph - N/A   Partly Cloudy
11:20 AM 78.8 °F - 64.4 °F 61% 29.95 in 6.2 mi ENE 5.8 mph - N/A   Scattered Clouds
11:50 AM 77.0 °F - 64.4 °F 65% 29.95 in 6.2 mi ENE 9.2 mph - N/A   Scattered Clouds
12:20 PM 80.6 °F 82.3 °F 64.4 °F 58% 29.95 in 6.2 mi ENE 9.2 mph - N/A   Scattered Clouds
12:50 PM 78.8 °F - 66.2 °F 65% 29.95 in 6.2 mi NE 10.4 mph - N/A   Partly Cloudy
1:20 PM 80.6 °F 82.3 °F 64.4 °F 58% 29.92 in 6.2 mi ENE 9.2 mph - N/A   Partly Cloudy
1:50 PM 82.4 °F 83.9 °F 64.4 °F 54% 29.92 in 6.2 mi ENE 10.4 mph - N/A   Partly Cloudy
2:20 PM 78.8 °F - 64.4 °F 61% 29.92 in 6.2 mi ENE 9.2 mph - N/A   Partly Cloudy
2:50 PM 82.4 °F 84.6 °F 66.2 °F 58% 29.92 in 6.2 mi ENE 12.7 mph - N/A   Partly Cloudy
3:20 PM 80.6 °F 82.7 °F 66.2 °F 61% 29.92 in 6.2 mi ENE 11.5 mph - N/A   Partly Cloudy
3:50 PM 80.6 °F 82.7 °F 66.2 °F 61% 29.92 in 6.2 mi ENE 11.5 mph - N/A   Partly Cloudy
4:20 PM 78.8 °F - 66.2 °F 65% 29.92 in 6.2 mi ENE 11.5 mph - N/A   Scattered Clouds
4:50 PM 78.8 °F - 68.0 °F 69% 29.92 in 6.2 mi ENE 10.4 mph - N/A   Scattered Clouds
5:20 PM 78.8 °F - 66.2 °F 65% 29.92 in 6.2 mi East 5.8 mph - N/A   Scattered Clouds
5:50 PM 77.0 °F - 66.2 °F 69% 29.92 in 6.2 mi ENE 8.1 mph - N/A   Scattered Clouds
6:20 PM 78.8 °F - 68.0 °F 69% 29.92 in 6.2 mi East 9.2 mph - N/A   Scattered Clouds
6:50 PM 77.0 °F - 68.0 °F 74% 29.92 in 6.2 mi ENE 8.1 mph - N/A   Partly Cloudy
7:20 PM 77.0 °F - 68.0 °F 74% 29.92 in 6.2 mi East 5.8 mph - N/A   Partly Cloudy
7:50 PM 75.2 °F - 68.0 °F 78% 29.92 in 6.2 mi East 3.5 mph - N/A   Partly Cloudy
9:50 PM 71.6 °F - 68.0 °F 88% 29.98 in 6.2 mi ESE 3.5 mph - N/A   Partly Cloudy
10:20 PM 71.6 °F - 68.0 °F 88% 29.98 in 6.2 mi SSE 3.5 mph - N/A   Partly Cloudy
10:50 PM 71.6 °F - 66.2 °F 83% 29.98 in 6.2 mi South 3.5 mph - N/A   Partly Cloudy
11:20 PM 69.8 °F - 66.2 °F 88% 29.98 in 6.2 mi SSW 4.6 mph - N/A   Partly Cloudy
11:50 PM 68.0 °F - 66.2 °F 94% 29.98 in 6.2 mi SSW 3.5 mph - N/A   Partly Cloudy